Regional Weather Roundup
Issued by NWS

Home | Current Version | Previous Version | Graphics & Text | Print | Product List | Glossary On
Versions: 1 2 3 4 5 6 7 8 9 10 11 12 13 14 15 16 17 18 19 20 21 22 23 24 25 26 27 28 29 30 31 32 33 34 35 36 37 38 39 40 41 42 43 44 45 46 47 48 49 50
000
ASUS43 KMKX 012200
RWRWI

WISCONSIN REGIONAL WEATHER ROUNDUP
NATIONAL WEATHER SERVICE MILWAUKEE/SULLIVAN WI
500 PM CDT WED OCT 01 2014

NOTE: "FAIR" INDICATES FEW OR NO CLOUDS BELOW 12,000 FEET WITH NO
SIGNIFICANT WEATHER AND/OR OBSTRUCTIONS TO VISIBILITY.

WIZ001-002-006>008-014>016-023>028-012300-
NORTHWEST WISCONSIN

CITY           SKY/WX    TMP DP  RH WIND       PRES   REMARKS
SUPERIOR ARPT  RAIN      51  50  98 CALM      29.79F
ASHLAND        LGT RAIN  52  50  93 CALM      29.83F FOG
HAYWARD        LGT RAIN  52  50  93 SE5       29.80F FOG
SIREN          CLOUDY    52  50  94 S8        29.79R
CUMBERLAND     CLOUDY    50  50 100 S8        29.81S FOG
RICE LAKE      CLOUDY    53  51  94 SE6       29.82F
CHETEK         CLOUDY    52  52  97 SE3       29.82S
LADYSMITH      RAIN      54  53  95 S3        29.85R
EAU CLAIRE     NOT AVBL
MENOMONIE      CLOUDY    54  53  97 SE8       29.81F FOG
NEW RICHMOND   CLOUDY    54  53  97 SE6       29.79F FOG
OSCEOLA        CLOUDY    54  54 100 SE6       29.81S
$$

WIZ003>005-009-010-017-018-012300-
NORTH CENTRAL WISCONSIN

CITY           SKY/WX    TMP DP  RH WIND       PRES   REMARKS
MANITOWISH WTR CLOUDY    53  52  95 SE10      29.83S
ARBOR VITAE    CLOUDY    57  54  89 S10       29.84S
WOODRUFF       CLOUDY    57  54  89 S10       29.84S
RHINELANDER    LGT RAIN  54  51  90 SE10      29.86F FOG
EAGLE RIVER    CLOUDY    54  48  82 SE8       29.85F
LAND O LAKES   CLOUDY    55  49  82 SE8       29.86F
PHILLIPS       DRIZZLE   53  51  91 S6        29.83R
TOMAHAWK       DRIZZLE   55  51  86 SE6       29.85F
MEDFORD        CLOUDY    54  52  94 SE6       29.84S
MERRILL        CLOUDY    58  53  83 SE8       29.86F
$$

WIZ029-030-035-036-043>047-012300-
CENTRAL WISCONSIN

CITY           SKY/WX    TMP DP  RH WIND       PRES   REMARKS
WAUSAU         CLOUDY    61  52  72 SE9       29.84F
MOSINEE        PTSUNNY   61  54  77 SE8       29.87S
MARSHFIELD     CLOUDY    59  52  77 SE9       29.85F
STEVENS POINT  CLOUDY    60  50  70 SE6       29.87S
WAUPACA        CLOUDY    66  53  63 E10       29.88S
WAUTOMA        NOT AVBL
WISC RAPIDS    CLOUDY    62  53  72 SE3       29.87S
CAMP DOUGLAS   NOT AVBL
$$

WIZ011>013-019>022-031-037>040-048>050-012300-
NORTHEAST WISCONSIN

CITY           SKY/WX    TMP DP  RH WIND       PRES   REMARKS
ANTIGO         CLOUDY    57  51  81 SE10G16   29.88S
SHAWANO        CLOUDY    62  53  72 SE10      29.90R
OCONTO         CLOUDY    56  53  86 SE8       29.92F
STURGEON BAY   NOT AVBL
GREEN BAY      CLOUDY    58  52  80 SE13      29.92S
MANITOWOC      NOT AVBL
APPLETON       PTSUNNY   61  50  67 SE12      29.90S
CLINTONVILLE   CLOUDY    61  52  72 SE9       29.88S
OSHKOSH        MOSUNNY   61  52  72 SE8       29.89R
$$

WIZ032>034-041-042-053>061-012300-
SOUTHWEST WISCONSIN

CITY           SKY/WX    TMP DP  RH WIND       PRES   REMARKS
LA CROSSE      CLOUDY    63  55  75 W3        29.81S
SPARTA         CLOUDY    64  53  68 CALM      29.83F
VIROQUA        CLOUDY    65  54  68 SE5       29.83S
BOSCOBEL       CLOUDY    73  56  54 VRB3      29.82S
PRAIRIE DU CHI PTSUNNY   69  53  56 SE6       29.80S
PLATTEVILLE    CLOUDY    71  57  59 SE14      29.84S
$$

WIZ056-057-062-063-064-067-068-012300-
SOUTH CENTRAL WISCONSIN

CITY           SKY/WX    TMP DP  RH WIND       PRES   REMARKS
REEDSBURG      PTSUNNY   67  56  66 SE6       29.84S
BARABOO/DELLS  CLOUDY    68  51  55 S15       29.84F
LONE ROCK      NOT AVBL
MINERAL POINT  MOSUNNY   72  55  56 SE7       29.84S
MADISON        NOT AVBL
MIDDLETON      CLOUDY    70  52  52 SE9       29.85F
WATERTOWN      PTSUNNY   64  53  67 E12       29.87S
MONROE         PTSUNNY   70  55  60 SE13      29.85S
JANESVILLE     SUNNY     72  54  53 SE13      29.86S
$$

WIZ051-052-058>065-066-070>072-012300-
SOUTHEAST WISCONSIN

CITY           SKY/WX    TMP DP  RH WIND       PRES   REMARKS
MILWAUKEE      PTSUNNY   60  52  74 SE17      29.93S
WAUKESHA       SUNNY     59  50  72 SE13      29.92S
MILWAUKEE/TIMM SUNNY     61  48  63 SE14G20   29.93S
RACINE         MOSUNNY   61  52  72 SE15      29.94S
BURLINGTON     MOSUNNY   61  51  70 SE8       29.90F
KENOSHA        MOSUNNY   61  52  72 SE14      29.92S
FOND DU LAC    MOSUNNY   61  50  67 SE14      29.89S
SHEBOYGAN      CLOUDY    57  50  77 SE10G17   29.94R
WEST BEND      MOSUNNY   57  48  72 SE12G17   29.92S
JUNEAU         PTSUNNY   64  53  67 E12       29.89S
$$

LSZ147-162-012300-
LAKE SUPERIOR

STATION/POSITION TIME  TEMP    WIND        PRES    WAVE
                       AIR SEA DIR/SP/G            HT/PER
                 (UTC) (F)     (DEG/KT/KT) (MB)    (FT/S)
W MID LAKE BUOY  2050   49 50   50/  6/  8 1010.6F   1
DEVILS ISLAND    2100   49      90/  4/  5 1010.7R
SAXON HARBOR     2100   53     270/  2/  4 1009.1F
$$

LMZ867-665-643>646-012300-
LAKE MICHIGAN

STATION/POSITION TIME  TEMP    WIND        PRES    WAVE
                       AIR SEA DIR/SP/G            HT/PER
                 (UTC) (F)     (DEG/KT/KT) (MB)    (FT/S)
CHAMBERS ISLAND  2100   58     120/  5/ 10 1014.2F
S GREEN BAY BUOY 2030   57                 1014.6
N MID LAKE BUOY  2050   56 58  190/  8/  8 1015.2F   1/ 3
NORTHPORT PIER   2100   56     150/  8/ 12 1014.6F
KEWAUNEE LAKESHO 2100   55     160/ 14/ 17 1013.3F
SHEBOYGAN LAKESH 2100   56 57  130/ 20/ 22 1013.7F
PORT WASHINGTON  2100   59     150/ 13/ 15 1014.2F
ATWATER BUOY     2000   58     150/ 16/ 19 1015.0F
MILWAUKEE LAKESH 2100   58     140/ 15/ 17   N/A
S MID LAKE BUOY  2050   59 61  110/ 14/ 16 1013.9F   2/ 3
KENOSHA   LAKESH 2100   61     140/ 18/ 19 1013.2S
$$

TC  - TEMPERATURE IN CELSIUS
VSB - VISIBILITY IN STATUTE MILES
WCI - WIND CHILL INDEX
HX  - HEAT INDEX



USA.gov is the U.S. government's official web portal to all federal, state and local government web resources and services.